Temperature
17 17 17 17 17 17 18 18 17 17 17 17 17 17 17 18 18 18 18 18 18 18 17 17 18 18 18 18 18 18 18 18 18 18 18 18 18 18 18 18 17 17 18
17 17 17 17 17 17 17 17 17 17 17 17 17 17 17 17 17 17 17 17 17 17 17 17 17 17 17 17 17 17 17 18 18 18 18 18 18 18 18 18 18 17 18
16 17 17 17 17 17 17 17 17 17 17 17 17 17 17 17 17 17 17 17 17 17 17 17 17 17 17 17 17 17 17 17 18 18 17 17 17 17 18 18 18 17 17
16 16 16 17 17 17 17 17 17 17 17 17 17 17 17 17 17 17 17 17 17 17 17 17 17 17 17 17 17 17 17 17 17 17 17 17 17 17 17 17 17 17 17
16 16 16 17 17 17 17 17 17 17 17 17 17 17 17 17 17 17 17 17 17 17 17 17 17 17 17 17 17 17 17 17 17 17 16 16 17 17 17 17 17 17 17
16 16 16 17 17 17 17 17 17 17 17 17 17 17 16 16 16 16 17 17 17 17 17 17 17 17 17 17 17 17 17 17 17 16 16 16 16 17 17 17 17 17 17
16 16 16 16 16 17 17 17 16 16 16 16 16 16 16 16 16 16 16 16 17 16 16 17 17 17 17 17 17 17 17 17 16 16 16 16 16 17 17 17 17 17 17
16 16 16 16 16 16 16 16 16 16 16 16 16 16 16 16 16 16 16 16 16 16 16 16 17 17 17 17 17 17 17 16 16 16 16 16 16 16 16 17 17 17 17
16 16 16 16 16 16 16 16 16 16 16 16 16 16 16 16 16 16 16 16 16 16 16 16 16 16 17 17 17 17 16 16 16 16 16 16 16 16 16 16 16 16 16
16 16 16 16 16 16 16 16 16 16 16 16 16 16 16 16 16 16 16 16 16 16 16 16 16 16 16 16 16 16 16 16 16 16 16 16 16 16 16 16 16 16 16
16 16 16 16 16 16 16 16 16 16 16 16 16 16 16 15 15 15 16 16 16 16 16 16 16 16 16 16 16 16 16 16 15 15 15 16 16 16 16 16 16 16 16
16 16 16 16 16 16 16 16 15 15 15 15 15 15 15 15 15 15 16 16 16 16 16 16 16 15 15 15 16 16 15 15 15 15 15 15 16 16 16 16 16 16 16
16 16 16 16 16 16 16 16 15 15 15 15 15 15 15 15 15 15 15 15 15 15 15 15 15 15 15 15 15 15 15 15 15 15 15 15 15 15 15 15 15 16 16
16 16 16 16 16 16 16 16 15 15 15 15 15 15 15 15 15 15 15 15 15 15 15 15 15 15 15 15 15 15 15 15 15 15 15 15 15 15 15 15 15 15 15
16 16 16 16 16 16 16 15 15 15 15 15 15 15 15 15 15 15 15 15 15 15 15 15 15 15 15 15 15 15 15 15 15 15 15 15 15 15 15 15 15 15 15
16 16 16 16 15 16 16 15 15 15 15 15 15 15 15 15 15 15 15 15 15 14 14 14 14 14 14 14 14 14 14 14 14 14 14 15 15 15 15 15 15 15 15
16 16 16 16 15 15 15 15 15 15 15 15 15 15 15 15 14 15 15 14 14 14 14 14 14 14 14 14 14 14 14 14 14 14 14 14 14 14 15 15 15 14 14
16 16 16 16 15 15 15 15 15 15 15 15 15 15 14 14 14 14 14 14 14 14 14 14 14 14 14 14 14 14 14 14 14 14 14 14 14 14 14 14 14 14 14
16 16 16 16 15 15 15 15 15 15 15 15 14 14 14 14 14 14 14 14 14 14 14 14 14 14 14 14 14 13 13 13 13 13 13 13 13 13 14 14 14 14 14
16 16 15 15 15 15 15 15 15 15 14 14 14 14 14 14 14 14 14 14 14 13 13 13 13 13 13 13 13 13 13 13 13 13 13 13 13 13 13 13 13 14 14
16 16 15 15 15 15 15 15 14 14 14 14 14 14 14 14 14 13 13 13 13 13 13 13 13 13 13 13 13 13 13 13 13 13 13 13 13 13 13 13 13 13 13
16 16 15 15 15 15 15 15 15 14 14 14 14 14 13 13 13 13 13 13 13 13 13 13 13 13 13 13 13 14 14 14 13 13 13 13 13 12 13 13 13 13 13
16 15 15 15 15 15 15 15 14 14 14 14 14 14 13 13 13 13 13 13 13 13 13 13 12 12 12 13 13 13 14 14 13 13 13 12 12 12 12 12 12 12 12
16 15 15 15 15 15 15 14 14 14 14 14 14 13 13 13 13 13 13 12 12 12 12 12 12 12 12 12 12 12 12 13 13 13 13 13 12 12 12 12 12 12 12
16 15 15 15 15 15 15 15 14 14 14 13 13 13 13 13 13 13 12 12 12 12 12 12 12 12 12 12 12 12 12 12 13 13 13 12 12 12 12 12 12 12 12
15 15 15 15 15 15 15 15 14 14 14 13 13 13 13 13 12 12 12 12 12 12 12 12 12 12 12 12 12 12 12 12 12 12 13 13 12 12 12 12 12 12 12
Wind_Speed
2 3 5 5 6 7 8 8 9 9 9 10 10 10 9 9 9 9 9 9 9 9 9 9 9 9 9 9 8 8 7 7 6 6 5 5 4 4 4 3 2 3 5
3 4 6 5 6 7 8 8 9 9 10 10 10 10 10 9 9 9 9 9 9 10 10 10 9 9 9 9 8 7 7 6 6 5 4 4 4 4 4 3 3 4 3
4 5 6 5 6 7 8 8 9 9 9 9 9 10 10 9 10 10 9 9 9 9 10 9 9 9 9 9 8 8 7 7 5 4 1 2 5 5 4 4 3 3 2
5 5 6 6 6 7 7 8 8 8 9 9 9 9 9 9 9 10 10 9 9 9 9 9 9 9 9 9 8 8 7 7 4 1 1 3 4 6 4 3 3 3 2
5 5 7 6 6 7 7 8 8 8 9 9 9 9 9 10 10 10 10 10 10 9 9 8 8 9 8 8 8 8 8 7 4 2 4 3 4 6 4 4 3 3 2
6 6 8 6 6 7 8 8 8 9 9 9 9 9 9 9 10 10 10 10 9 9 9 8 8 8 7 7 8 8 7 5 2 3 4 4 5 6 5 4 3 3 3
6 6 8 7 7 8 8 8 8 9 9 9 9 9 9 9 9 10 10 10 9 9 8 8 8 8 7 7 8 7 7 5 4 4 4 4 6 7 6 5 5 4 4
6 6 8 8 8 8 8 8 9 9 9 9 9 10 10 9 9 9 10 10 10 9 9 9 8 8 8 8 8 8 7 6 5 5 5 6 8 7 7 7 6 6 5
6 6 6 7 8 8 8 8 9 9 9 9 10 10 10 9 9 9 9 9 10 10 10 10 10 9 9 9 9 8 7 6 5 5 6 7 9 8 7 6 7 7 6
5 5 5 5 6 6 8 9 9 9 9 10 10 10 9 9 9 8 8 9 9 10 10 10 11 11 10 10 10 8 5 3 6 6 6 8 9 7 7 7 7 7 7
5 5 5 5 5 5 6 7 7 8 8 7 8 8 5 6 7 7 11 9 9 9 9 10 9 8 7 9 8 6 4 5 6 6 7 9 8 7 7 7 7 7 7
5 5 4 4 5 5 5 5 4 5 5 5 5 5 5 5 6 7 9 9 9 8 8 8 6 4 3 5 5 2 4 6 5 6 8 9 8 7 6 7 7 7 7
5 5 4 4 4 4 4 4 3 3 4 4 4 5 4 4 4 4 4 5 5 4 5 5 3 4 4 5 4 5 5 5 5 6 8 10 9 8 7 8 8 8 7
5 5 4 4 4 4 4 3 3 3 3 3 3 4 3 3 3 3 3 4 3 3 3 3 3 4 4 4 4 5 6 5 5 5 8 10 9 8 8 7 8 7 7
5 5 4 4 3 3 3 3 3 3 3 3 3 3 3 2 2 3 3 3 4 4 3 3 3 4 4 4 4 5 5 5 5 5 6 9 9 9 8 7 8 8 7
6 5 5 4 3 3 3 3 3 3 3 3 3 2 3 3 3 2 3 3 4 4 3 3 3 3 3 3 4 4 5 4 4 5 5 6 8 8 8 8 8 8 7
6 5 5 4 3 3 3 2 2 2 2 2 2 2 3 3 3 3 2 3 3 3 3 3 3 3 2 2 3 4 4 4 4 4 5 4 5 7 8 8 8 8 7
6 5 5 4 3 3 2 2 2 2 2 2 2 2 2 3 3 3 2 2 2 2 2 2 2 2 2 2 2 2 2 3 3 3 3 4 4 4 6 8 8 8 7
6 6 5 5 4 3 3 2 2 2 2 2 2 2 1 2 2 2 2 2 2 2 2 2 2 2 2 2 2 1 1 2 2 2 3 4 4 3 4 5 6 7 7
6 6 6 5 4 3 3 3 3 2 2 2 2 1 1 1 1 2 2 1 2 1 2 2 2 2 2 2 1 1 1 1 1 2 3 3 4 4 3 3 3 5 6
7 7 7 6 5 4 3 3 2 2 2 2 1 1 1 1 1 1 1 1 1 1 1 2 1 2 2 1 0 1 1 1 1 2 2 2 3 3 3 3 3 3 3
8 8 7 6 5 5 3 3 2 2 2 2 1 2 1 1 1 1 1 1 1 1 1 1 1 1 1 1 1 1 1 2 1 1 1 2 2 2 2 3 3 3 3
9 9 7 7 6 5 5 3 3 3 2 2 2 1 1 1 1 0 1 1 0 1 1 1 1 0 0 1 2 2 1 1 1 1 1 1 2 2 2 2 3 3 3
10 9 8 8 7 6 6 5 5 4 3 3 2 2 2 1 1 1 1 0 0 0 1 1 1 0 1 0 0 2 2 2 2 1 0 1 2 2 2 2 2 2 2
10 9 8 8 7 7 6 6 5 4 3 2 2 3 2 2 2 1 1 1 1 1 1 1 1 1 1 1 1 1 1 2 3 3 2 2 1 1 2 2 1 2 2
8 9 8 8 8 7 7 6 6 5 4 4 3 3 3 2 2 2 2 2 2 1 1 2 2 2 2 1 2 1 1 2 2 2 3 3 2 1 1 1 1 1 2
Wind_Direction
87 76 73 69 68 70 74 77 76 84 87 87 88 88 89 87 85 87 89 92 94 90 88 84 83 79 80 79 78 81 81 80 79 80 81 85 92 99 102 112 139 131 102
97 90 85 75 75 75 76 78 83 83 86 86 86 86 86 86 84 88 90 89 89 87 85 82 78 76 76 76 74 77 77 74 73 73 80 103 100 91 86 85 48 66 94
99 96 100 80 77 77 78 77 84 87 89 89 86 84 85 84 84 85 88 90 87 86 84 82 81 78 76 73 71 71 71 71 72 69 98 99 103 95 84 81 77 79 91
97 92 87 84 78 77 78 78 80 86 88 89 86 85 85 84 84 84 84 88 88 87 84 80 77 77 76 71 68 67 65 62 59 352 63 66 82 89 86 87 86 86 89
95 89 87 84 79 76 75 80 81 84 86 86 85 83 83 83 82 82 82 83 84 82 77 76 77 76 75 71 68 65 62 53 32 357 51 56 67 74 73 71 73 69 67
98 92 91 87 82 78 75 82 83 84 85 85 83 81 78 78 79 80 80 79 78 77 74 71 73 74 74 73 70 64 56 38 350 40 45 51 69 74 68 66 59 55 49
103 95 95 86 82 81 77 81 82 83 83 83 84 80 73 74 78 81 78 76 74 75 74 72 71 70 67 68 67 61 50 16 25 40 42 53 62 63 60 60 52 52 47
99 97 98 93 83 80 76 73 76 79 80 80 81 78 74 73 74 77 77 73 71 72 73 70 71 70 66 65 63 57 40 4 47 44 51 62 64 59 57 54 48 46 49
98 95 95 103 101 91 80 74 73 76 74 74 75 74 74 74 74 73 74 73 72 72 70 68 68 71 66 66 64 59 49 24 35 46 51 60 60 54 53 50 46 45 49
102 97 94 91 92 99 98 82 76 74 73 74 73 71 71 73 74 73 77 74 74 72 70 69 66 65 62 63 61 55 39 23 43 46 48 58 54 51 52 52 48 45 49
108 103 100 93 86 86 92 96 94 88 80 84 83 81 84 82 79 80 67 70 75 73 71 69 66 67 70 77 62 43 23 44 49 45 49 49 47 48 48 51 51 49 49
128 118 110 104 100 96 94 100 95 91 87 79 78 84 81 77 73 74 81 74 76 78 82 74 71 83 67 72 76 51 46 44 48 55 53 47 44 47 50 49 51 54 53
136 125 121 116 104 103 104 97 90 87 86 85 80 84 82 81 87 84 86 93 85 80 74 82 84 64 61 58 43 49 46 40 47 51 52 46 45 47 50 52 50 54 57
143 136 127 120 114 109 105 99 99 96 91 88 81 79 82 78 71 71 72 70 69 68 59 57 55 64 59 59 55 55 57 50 49 51 56 46 41 44 47 51 50 50 54
151 146 136 131 121 112 105 98 100 95 92 91 76 71 80 80 73 75 71 66 63 63 66 55 56 59 52 50 49 47 50 51 49 51 62 56 44 42 44 47 49 48 50
162 156 142 142 132 127 123 121 106 104 101 89 88 78 83 87 84 80 75 67 61 54 51 51 54 58 56 56 48 48 44 43 45 52 51 65 57 43 40 43 45 44 45
165 160 153 152 144 138 132 114 107 110 106 92 87 84 86 86 88 86 77 77 68 58 52 47 49 50 54 56 52 48 46 37 30 43 46 40 57 64 49 41 39 40 40
168 164 157 158 158 147 140 131 119 115 107 103 104 88 85 92 89 83 76 71 68 61 53 50 38 40 45 44 38 40 42 45 32 35 45 46 35 37 65 49 38 37 37
176 172 168 170 166 157 153 141 124 118 110 107 108 98 92 92 94 98 79 62 64 61 50 51 47 30 40 41 34 25 22 37 38 34 38 36 35 28 50 73 60 46 40
181 179 174 173 173 163 166 153 133 122 113 102 105 107 93 94 98 107 112 93 75 73 55 55 69 53 40 30 31 29 31 57 54 36 26 28 21 28 34 41 63 73 57
185 183 178 179 173 170 167 168 158 150 130 115 111 107 109 118 116 109 130 110 81 76 51 49 72 83 67 26 47 84 135 132 63 54 19 13 36 29 30 45 32 31 64
188 188 183 182 182 178 175 172 165 153 145 128 110 94 89 109 125 141 170 156 143 121 80 54 74 56 71 10 333 288 228 166 101 55 15 3 19 37 33 35 44 45 34
191 190 188 185 180 177 175 163 149 146 157 157 150 133 112 106 104 140 163 182 172 182 119 74 95 86 30 39 359 327 310 320 333 133 25 7 16 16 33 34 28 37 36
194 191 190 186 182 176 175 178 180 185 185 185 172 169 169 153 149 205 211 226 207 185 158 174 122 108 287 4 22 340 336 331 292 282 223 16 18 14 17 22 21 22 30
190 189 191 188 184 182 185 187 197 200 191 179 177 175 175 168 182 201 212 214 225 233 241 235 227 241 263 285 303 302 298 289 289 287 291 313 336 5 17 7 19 30 33
185 186 189 191 187 187 190 191 197 199 190 184 186 181 184 180 190 203 218 214 209 226 245 249 246 241 257 267 276 278 278 284 294 289 284 294 312 342 355 3 352 28 23
Height
1525 1524 1523 1522 1522 1522 1521 1521 1521 1521 1521 1521 1521 1521 1521 1521 1521 1522 1522 1522 1523 1523 1522 1523 1523 1523 1523 1523 1523 1523 1523 1523 1524 1524 1524 1524 1524 1523 1523 1524 1524 1525 1524
1526 1525 1524 1524 1523 1523 1522 1522 1522 1522 1522 1522 1522 1523 1522 1522 1523 1523 1523 1523 1523 1524 1524 1524 1524 1524 1524 1524 1524 1524 1524 1524 1524 1524 1524 1524 1524 1524 1524 1524 1524 1525 1524
1526 1526 1525 1525 1524 1524 1524 1524 1523 1523 1524 1524 1524 1524 1524 1524 1524 1524 1524 1524 1524 1524 1525 1525 1525 1525 1525 1525 1525 1525 1525 1525 1525 1525 1525 1526 1525 1524 1524 1524 1524 1524 1524
1527 1527 1526 1526 1525 1525 1525 1525 1525 1525 1525 1525 1525 1525 1525 1525 1525 1525 1525 1525 1525 1525 1526 1526 1526 1526 1526 1526 1526 1526 1526 1526 1526 1526 1526 1526 1526 1524 1524 1524 1524 1524 1524
1528 1528 1527 1527 1527 1526 1526 1526 1526 1526 1526 1526 1526 1526 1527 1527 1526 1526 1526 1526 1526 1527 1527 1527 1527 1527 1527 1527 1526 1526 1526 1526 1526 1526 1526 1525 1525 1524 1524 1524 1524 1524 1524
1529 1529 1528 1527 1528 1527 1527 1527 1527 1527 1528 1528 1528 1528 1528 1528 1528 1528 1527 1527 1527 1528 1528 1528 1528 1527 1527 1527 1527 1527 1527 1526 1527 1526 1525 1524 1524 1524 1524 1524 1524 1524 1524
1530 1530 1529 1529 1529 1529 1529 1529 1529 1529 1529 1529 1529 1529 1529 1529 1529 1529 1529 1529 1529 1529 1529 1529 1528 1528 1528 1528 1528 1527 1527 1527 1527 1526 1525 1523 1523 1524 1525 1525 1525 1524 1524
1531 1531 1530 1530 1530 1530 1530 1530 1530 1530 1530 1530 1530 1530 1530 1530 1530 1530 1530 1530 1530 1530 1530 1530 1529 1529 1529 1529 1528 1528 1528 1527 1528 1527 1525 1524 1523 1524 1525 1525 1525 1525 1524
1532 1532 1532 1532 1532 1531 1531 1531 1531 1531 1531 1531 1531 1531 1531 1531 1531 1531 1531 1531 1531 1531 1531 1531 1530 1530 1530 1529 1529 1529 1528 1528 1529 1529 1528 1526 1525 1526 1526 1526 1525 1525 1525
1533 1533 1533 1533 1534 1534 1533 1533 1533 1533 1533 1533 1533 1533 1533 1532 1533 1533 1533 1533 1532 1532 1532 1532 1532 1531 1531 1530 1530 1530 1529 1530 1530 1530 1529 1528 1527 1527 1527 1526 1526 1526 1525
1533 1534 1534 1534 1535 1535 1535 1534 1534 1534 1534 1534 1534 1534 1534 1535 1535 1535 1534 1534 1534 1533 1533 1533 1533 1533 1532 1532 1531 1531 1531 1531 1531 1530 1530 1529 1528 1528 1528 1527 1527 1526 1526
1534 1534 1535 1535 1535 1536 1536 1536 1536 1536 1536 1536 1536 1536 1536 1536 1536 1536 1535 1535 1535 1534 1534 1534 1534 1534 1534 1534 1533 1532 1533 1532 1532 1532 1531 1530 1529 1529 1528 1528 1527 1527 1526
1534 1535 1536 1536 1536 1536 1536 1537 1537 1537 1537 1537 1537 1537 1537 1537 1537 1537 1537 1537 1536 1536 1536 1535 1536 1536 1535 1535 1534 1534 1533 1533 1533 1533 1531 1530 1530 1529 1529 1528 1528 1527 1527
1535 1535 1536 1537 1537 1537 1537 1538 1538 1538 1538 1538 1538 1539 1539 1538 1538 1538 1538 1537 1537 1537 1536 1537 1536 1536 1536 1536 1535 1535 1534 1534 1533 1533 1532 1531 1530 1530 1529 1529 1528 1528 1527
1535 1535 1536 1537 1537 1538 1538 1538 1538 1539 1539 1539 1538 1539 1539 1539 1539 1539 1539 1538 1538 1538 1537 1537 1537 1537 1537 1536 1536 1536 1535 1534 1534 1533 1532 1531 1531 1530 1530 1529 1529 1528 1528
1534 1536 1536 1537 1538 1538 1539 1539 1539 1539 1539 1539 1539 1539 1540 1539 1539 1539 1539 1538 1538 1538 1538 1538 1538 1537 1537 1536 1536 1536 1535 1535 1534 1534 1533 1532 1531 1531 1530 1529 1529 1529 1528
1534 1535 1536 1537 1537 1538 1539 1539 1539 1539 1540 1540 1540 1540 1540 1540 1540 1540 1540 1539 1539 1538 1538 1538 1538 1537 1537 1537 1536 1536 1535 1535 1535 1534 1533 1532 1532 1531 1530 1530 1529 1529 1529
1534 1535 1536 1536 1537 1538 1538 1539 1539 1540 1540 1540 1540 1540 1540 1540 1540 1540 1540 1540 1539 1539 1538 1538 1538 1538 1537 1537 1537 1536 1536 1535 1535 1534 1533 1533 1532 1532 1530 1530 1529 1529 1529
1533 1534 1535 1536 1537 1537 1538 1539 1539 1539 1539 1540 1540 1540 1540 1540 1540 1540 1540 1539 1539 1539 1539 1538 1538 1538 1537 1537 1536 1536 1536 1535 1534 1534 1534 1533 1532 1531 1531 1530 1529 1529 1529
1532 1533 1534 1535 1536 1537 1537 1538 1538 1539 1539 1539 1539 1539 1539 1540 1540 1540 1539 1540 1539 1539 1538 1538 1537 1537 1537 1537 1536 1536 1535 1535 1534 1534 1533 1533 1532 1531 1531 1530 1530 1529 1529
1530 1531 1533 1534 1535 1536 1536 1537 1538 1538 1539 1539 1539 1539 1539 1539 1539 1539 1539 1539 1539 1539 1538 1538 1537 1537 1537 1537 1537 1536 1536 1535 1535 1534 1533 1533 1532 1531 1530 1530 1530 1529 1529
1528 1529 1531 1533 1534 1535 1535 1536 1537 1537 1538 1538 1538 1538 1538 1538 1538 1539 1539 1539 1538 1538 1537 1537 1536 1537 1536 1536 1537 1537 1536 1537 1535 1534 1533 1532 1532 1530 1530 1530 1529 1529 1528
1525 1527 1529 1530 1532 1533 1534 1535 1536 1536 1536 1537 1537 1537 1537 1537 1537 1538 1538 1538 1538 1538 1537 1537 1536 1536 1536 1536 1536 1537 1536 1535 1535 1535 1533 1532 1531 1530 1530 1529 1529 1528 1528
1523 1525 1527 1529 1530 1531 1532 1533 1534 1535 1536 1536 1536 1536 1536 1536 1536 1536 1537 1537 1537 1537 1536 1536 1536 1536 1536 1536 1536 1535 1536 1535 1535 1534 1534 1532 1531 1530 1530 1529 1528 1528 1527
1521 1523 1525 1527 1528 1529 1531 1532 1533 1534 1534 1535 1535 1535 1535 1535 1535 1535 1535 1535 1536 1536 1536 1535 1535 1535 1535 1535 1535 1535 1535 1534 1534 1534 1533 1532 1531 1530 1529 1528 1528 1527 1527
1518 1520 1522 1524 1526 1527 1528 1530 1531 1532 1533 1533 1533 1533 1534 1534 1533 1533 1533 1534 1534 1534 1534 1534 1534 1534 1534 1534 1534 1534 1534 1534 1533 1533 1532 1531 1530 1530 1528 1528 1527 1527 1526